Weather in Chilpancingo de los Bravo

Mexico     17°33′07″N   99°30′10″W
В апреле 2022 года жителям России запретили посещать сайт meteo.paraplan.net по решению Генеральной прокуратуры. Аудитория сайта уменьшилась в 10 раз. Владельцы сайта не видят смысла в поддержке погодного сервера в таких условиях. Сайт будет закрыт в октябре.
temp.,
°C
wind,
m/s
gust,
m/s
humid.,
%
clouds,
%
prec.,
mm/h
press.,
hPa
HPBL,
m
30 september, fri
fri3001:00+15n11918 2.1 101615
04:00+14n229374 0.0 101531
07:00+14n229454 0.0 101543
10:00+19n238093 0.0 1015388
13:00+23ne116455 0.1 10131299
16:00+21ssw118158 2.1 1010489
19:00+18ssw119565 3.8 101176
22:00+17ssw229983 1.6 1013139
1 october, sat
sat101:00+16s229959 1.9 101497
04:00+16se119722 0.3 101325
07:00+14nne11966 0.3 101312
10:00+19e00857 0.0 1014432
13:00+20sse218699 2.6 1013675
16:00+19s229075 2.8 1011606
19:00+17ssw229790 3.7 1012151
22:00+15ssw229898 0.1 1015105
2 october, sun
sun201:00+15s229733 0.1 101664
04:00+15ssw1195100 0.0 101425
07:00+15nne009475 0.0 101511
10:00+19ese0081100 0.0 1016445
13:00+21s2280100 1.0 10151043
16:00+19ssw229094 2.8 1013616
19:00+17ssw2296100 3.3 1014179
22:00+15ssw229874 0.1 101878
3 october, mon
mon301:00+15ssw229971 0.2 1018102
04:00+14sw119888 0.0 101658
07:00+14n119592 0.0 101713
10:00+19nne118114 0.0 1018382
13:00+23sse116749 0.2 10151249
16:00+19s229058 2.3 1014421
19:00+18s229746 4.3 1015127
22:00+16ssw129848 1.3 1017108
4 october, tue
tue401:00+15ssw119827 1.4 101735
04:00+14ssw119847 0.0 101622
07:00+14n119595 0.0 101622
10:00+19nne008118 0.0 1017329
13:00+21s227770 1.3 1015968
16:00+19ssw338895 3.1 1013723
19:00+17ssw239722 4.6 1014183
22:00+15ssw129946 0.1 101747